Home > Weather > Frankfurt > Past weeks

Flag for Germany Weather for the Past 2 Weeks in Frankfurt, Hesse, Germany

Now
45 °F

Passing clouds.


Feels Like: 37 °F
Forecast: 37 / 42 °F
Wind: 16 mph from Southwest

Location: Frankfurt-M-Flughafen Airport

Current Time: Feb 9, 2016 at 5:11:44 AM

Latest Report: Feb 9, 2016 at 4:20 AM


Visibility: N/A

Pressure: 29.59 "Hg

Humidity: 76%

Dew point: 37 °F

Location of FrankfurtLocation

Historic Weather in Frankfurt — Graph

°F

Frankfurt Temperature Yesterday

Maximum temperature yesterday: 50 °F (at 10:50 AM)
Minimum temperature yesterday: 43 °F (at 12:20 AM)
Average temperature yesterday: 45 °F

High & Low Weather Summary for the Past Weeks

 TemperatureHumidityPressure
High57 °F (Feb 1, 3:50 AM)100% (Jan 25, 5:50 AM)30.42 "Hg (Jan 25, 5:50 AM)
Low28 °F (Jan 29, 4:50 AM)54% (Jan 25, 3:50 PM)29.42 "Hg (Feb 8, 1:20 PM)
Average45 °F79%30.07 "Hg
* Reported Jan 25 3:20 AM — Feb 9 3:20 AM, Frankfurt, Weather by CustomWeather, © 2016

Note: Actual official high and low records may vary slightly from our data, if they occured in-between our weather recording intervals... More about our weather records

Advertising

Frankfurt Weather History for the Previous 24 Hours

 ConditionsComfort  
Time TempWeatherWind HumidityBarometerVisibility
3:20 AM
Tue, Feb 9
46 °FPartly cloudy.14 mph71%29.62 "HgN/A
2:50 AM46 °FPartly cloudy.18 mph66%29.62 "HgN/A
2:20 AM46 °FPartly cloudy.20 mph66%29.62 "HgN/A
1:50 AM46 °FPassing clouds.15 mph66%29.62 "HgN/A
1:20 AM46 °FPassing clouds.13 mph66%29.62 "HgN/A
12:50 AM45 °FPassing clouds.17 mph71%29.62 "HgN/A
12:20 AM46 °FPassing clouds.20 mph62%29.62 "HgN/A
11:50 PM
Mon, Feb 8
45 °FPassing clouds.21 mph66%29.59 "HgN/A
11:20 PM46 °FPassing clouds.21 mph62%29.59 "HgN/A
10:50 PM45 °FPassing clouds.21 mph71%29.59 "HgN/A
10:20 PM45 °FPassing clouds.16 mph71%29.59 "HgN/A
9:50 PM45 °FPassing clouds.16 mph71%29.56 "HgN/A
9:20 PM45 °FPassing clouds.20 mph71%29.56 "HgN/A
8:50 PM45 °FPassing clouds.16 mph71%29.56 "HgN/A
8:20 PM45 °FPassing clouds.18 mph71%29.53 "HgN/A
7:50 PM45 °FClear.16 mph71%29.53 "Hg10 mi
7:20 PM43 °FPassing clouds.18 mph76%29.53 "HgN/A
6:50 PM45 °FClear.23 mph71%29.53 "Hg10 mi
6:20 PM45 °FPassing clouds.24 mph71%29.50 "HgN/A
5:50 PM45 °FSprinkles. Passing clouds.26 mph71%29.47 "HgN/A
5:20 PM43 °FPartly sunny.18 mph81%29.47 "HgN/A
4:50 PM43 °FSprinkles. Partly sunny.18 mph87%29.47 "HgN/A
4:20 PM43 °FStrong thunderstorms. Partly sunny.24 mph87%29.50 "Hg1 mi
3:50 PM43 °FThunderstorms. Broken clouds.29 mph87%29.47 "Hg2 mi
3:20 PM50 °FSprinkles. Broken clouds.20 mph71%29.45 "HgN/A
2:50 PM50 °FSprinkles. Partly sunny.21 mph71%29.45 "HgN/A
2:20 PM50 °FSprinkles. Partly sunny.20 mph76%29.45 "HgN/A
1:50 PM50 °FSprinkles. Partly sunny.24 mph76%29.45 "HgN/A
1:20 PM48 °FLight rain. Broken clouds.22 mph82%29.42 "HgN/A
12:50 PM48 °FLight rain. Partly sunny.25 mph87%29.45 "HgN/A
12:20 PM48 °FLight rain. Partly sunny.16 mph87%29.45 "HgN/A
11:50 AM48 °FPartly sunny.16 mph82%29.45 "HgN/A
11:20 AM46 °FLight rain. Partly sunny.14 mph87%29.47 "HgN/A
10:50 AM50 °FLight rain. Partly sunny.17 mph71%29.47 "HgN/A
10:20 AM48 °FPartly sunny.17 mph71%29.47 "HgN/A
9:50 AM46 °FPartly sunny.17 mph76%29.47 "HgN/A
9:20 AM46 °FLight rain. Partly sunny.20 mph76%29.50 "HgN/A
8:50 AM46 °FLight rain. Partly sunny.20 mph71%29.50 "HgN/A
8:20 AM46 °FPartly sunny.21 mph66%29.50 "HgN/A
7:50 AM46 °FPartly sunny.21 mph66%29.53 "HgN/A
7:20 AM46 °FPassing clouds.21 mph66%29.53 "HgN/A
6:50 AM45 °FPassing clouds.21 mph71%29.56 "HgN/A
6:20 AM45 °FPassing clouds.21 mph71%29.59 "HgN/A
5:50 AM45 °FPassing clouds.17 mph71%29.59 "HgN/A
5:20 AM45 °FPassing clouds.17 mph71%29.59 "HgN/A
Weather by CustomWeather, © 2016

See weather overviewHow to use our weather pages